STARLINK-33674, 63329

Orbit data source: Space-Track

STARLINK-33674, 63329 is a payload satellite owned by SpaceX/Seattle (US) in LEO that was launched on Tue, 18 Mar 2025 UTC via an FALCON 9 launch vehicle from the Air Force Eastern Test Range (AFETR). Payload-class satellites include a variety of spacecraft equipped with specific instruments for various scientific and technological missions. These include communications satellites like Starlink; space stations such as the ISS; scientific satellites like the Hubble; Earth observation satellites from companies like Planet Labs, Umbra, and HawkEye 360; GPS; miniature CubeSats for education and research; and military/defense satellites.

Loading next visibility...
Identifier
63329, 2025-057Y
Orbit
LEO
Country
Flag of USUS
Related business
Manufacturer
SpaceX/Seattle
Mission
Operational Commercial Communications
Bus & Motor
STARLINK V2MO, Unknown motor
Mass
575 kg wet, ~530 kg dry
Launch date (UTC)
2025-03-18 (7 months ago)
Launch vehicle
FALCON 9
Launch site
Air Force Eastern Test Range (AFETR)
Object type
Payload
Rocket body
Debris
Shape & HBR
Box + 2 Pan, 17.7 m
Radar Cross Section
36.964 m², Large (>1 m²)

Expand to show TLE details & history
Last TLE update: 21 hours ago

TLE from 21 hours ago
0 STARLINK-33674
1 63329U 25057Y   25295.83528647  .00033844  00000-0  12320-2 0  9990
2 63329  43.0024  89.4391 0001739 287.9999  72.0663 15.27625782 34696
Epoch: 2025-10-22T20:02Z
TLE epoch observation values (Epoch: 2025-10-22T20:02:48.751Z)
Latitude
-0°
Longitude
117.23277°
Altitude
482.321 km
Speed
7.626 km/s
True Right ascension
05h 57m 45s
True Declination
0° 00' 00"
Sunlit
Object was in full shadow at epoch
Visualization orbit readout
Latitude
Unknown
Longitude
Unknown
Altitude
Unknown
Speed
Unknown
Apparent Right ascension
Unknown
Apparent Declination
Unknown
Sunlit
N/A
Visualization observer readout
Local Sidereal Time
12:20:56
Azimuth
Unknown
Elevation
Unknown
Doppler factor
Unknown
Orbital elements
Apogee altitude
486.05 km
Perigee altitude
483.663 km
Semi-major axis
6,862.994 km
Eccentricity
0.00017
Inclination
43.0024°
RAAN
89.4391°
Arg. of periapsis
287.9999°
True anomaly
72.08526°
Mean anomaly
72.0663°
Eccentric anomaly
72.07578°
Mean motion
3.81744 °/min
Orbital period
94.3 mins
BSTAR
0.001232
Loading maneuver chart data...
Computing Atmospheric mass density...
Loading historical data...
Loading historical data...
Loading historical data...
Loading historical data...
Loading historical data...
Loading historical data...
Loading historical data...

Documentation

Showing up to 5 results
|